NOAA 16 DEB, 42354

Orbit data source: Space-Track

NOAA 16 DEB, 42354 is space debris in SSO originally from a launch on Thu, 21 Sep 2000 UTC launched from the Air Force Western Test Range (AFWTR). Debris objects in space refer to the collection of defunct objects orbiting the Earth. Examples of debris include non-operational satellites, rocket bodies, and fragments generated from explosions, collisions, or faulty payload assembly.

Loading next visibility...
Identifier
42354, 2000-055QW
Orbit
SSO
Country
Flag of USUS
Related business
Manufacturer
Unknown
Mission
Spacecraft
Bus & Motor
Unknown
Mass
Unknown
Launch date (UTC)
2000-09-21 (25 years ago)
Launch vehicle
Unknown
Launch site
Air Force Western Test Range (AFWTR)
Object type
Payload
Rocket body
Debris
Shape & HBR
Unknown shape, 0.1 m
Radar Cross Section
Small (<0.1 m²)

Expand to show TLE details & history
Last TLE update: 16 hours ago

TLE from 16 hours ago
0 NOAA 16 DEB
1 42354U 00055QW  25288.21111849  .00005576  00000-0  29492-2 0  9991
2 42354  99.1614  24.9260 0007918 273.9386  86.0881 14.14137404485889
Epoch: 2025-10-15T05:04Z
TLE epoch observation values (Epoch: 2025-10-15T05:04:00.637Z)
Latitude
0.00002°
Longitude
-75.06511°
Altitude
847.754 km
Speed
7.429 km/s
True Right ascension
01h 39m 42s
True Declination
0° 00' 00"
Sunlit
Object was in full shadow at epoch
Visualization orbit readout
Latitude
Unknown
Longitude
Unknown
Altitude
Unknown
Speed
Unknown
Apparent Right ascension
Unknown
Apparent Declination
Unknown
Sunlit
N/A
Visualization observer readout
Local Sidereal Time
15:52:35
Azimuth
Unknown
Elevation
Unknown
Doppler factor
Unknown
Orbital elements
Apogee altitude
848.154 km
Perigee altitude
836.719 km
Semi-major axis
7,220.574 km
Eccentricity
0.00079
Inclination
99.1614°
RAAN
24.926°
Arg. of periapsis
273.9386°
True anomaly
86.17863°
Mean anomaly
86.0881°
Eccentric anomaly
86.13336°
Mean motion
3.53741 °/min
Orbital period
101.77 mins
BSTAR
0.0029492
Loading maneuver chart data...
Computing Atmospheric mass density...

Documentation

Showing up to 5 results
|